map of AJI home
AJI - Airport
Location
City:  Agri, Agri, Turkey
ICAO:LTCO
IATA:AJI

Details
Type:Airport (Aerodrome, Airfield)
Latitude:3939'16"N (39.654569)
Longitude:4301'38"E (43.027150)
Datum:WGS 1984
Elevation:5462 ft (1665 m)
Variation:6.19E (WMM2015v2 magnetic declination)
0.08 annual change
Runways:1
Longest:6562 × 98 ft (2000 × 30 m), paved

Time
Time Zone:UTC+3
Local Time:

Weather
METAR:LTCO 041350Z 00000KT 2200 BR NSC M13/M15 Q1031

Related Locations
Nearby:
Farthest:GMR: 11282 mi / 18156 km
Mangareva [Totegegie], Gambier Islands, PF

Find:

   beyond  
but within

Other Information
Maps:
NOTAMs:
Links:
Sources:

  
  • flag of Turkey
  

Sectional Chart

Flight Planning
at skyvector.com

Satellite Image

Google Maps Satellite view

 

Copyright © 2004-2019 Karl L. Swartz. All rights reserved.
The Great Circle Mapper name and logo are trademarks of the Great Circle Mapper.
All other trademarks mentioned herein belong to their respective owners.
Please see credits for attibutions and further copyright information.

  Follow gcmap on Facebook Follow gcmap on Twitter GCmap on LinkedIn

hCard Microformat

Geo Microformat